Weather in Jabrayil

Azerbaijan     39˚23′50″N   47˚01′38″E
temp.,
°C
wind,
m/s
gust,
m/s
humid.,
%
clouds,
%
prec.,
mm/h
press.,
hPa
HPBL,
m
1 december, tue
tue101:00+3˚ene009495 0.0 102584
04:00+2˚n119482 0.0 102484
07:00+2˚nnw019096 0.0 102450
10:00+4˚s118171 0.0 1024257
13:00+6˚ese217322 0.0 1023561
16:00+6˚ene228056 0.0 1022391
19:00+4˚e119177 0.0 102435
22:00+3˚sw119152 0.0 102538
2 december, wed
wed201:00+3˚wsw11890 0.0 102522
04:00+2˚n11900 0.0 102522
07:00+2˚nnw11880 0.0 102622
10:00+5˚sse11770 0.0 1026130
13:00+7˚e21730 0.0 1025415
16:00+6˚ene227612 0.0 1024387
19:00+4˚ne118998 0.0 102678
22:00+3˚ne119399 0.0 102626
3 december, thu
thu301:00+4˚ne0190100 0.0 102769
04:00+4˚ene0091100 0.0 102856
07:00+4˚e119399 0.0 102859
10:00+5˚ese1185100 0.0 1029204
13:00+6˚ese2182100 0.1 1028391
16:00+5˚ene228998 0.2 1027267
19:00+4˚e229699 0.1 1028136
22:00+4˚ene129699 0.1 102999
4 december, fri
fri401:00+4˚e1196100 0.0 102995
04:00+3˚ene1196100 0.1 102885
07:00+3˚e119799 0.0 102878
10:00+4˚ese1194100 0.0 1028141
13:00+6˚ese228293 0.1 1026384
16:00+5˚ene229196 0.2 1025271
19:00+4˚e229598 0.1 1026144
22:00+4˚e019399 0.1 1026113
5 december, sat
sat501:00+3˚se0094100 0.0 102564
04:00+3˚ne0193100 0.0 102561
07:00+3˚nw018895 0.0 102453
10:00+4˚ese108190 0.0 1025186
13:00+5˚ese218257 0.0 1023377
16:00+6˚e228374 0.1 1022365
19:00+5˚e2292100 0.0 1024156
22:00+4˚e119099 0.1 1024147